Location: Unspecified
(50.7693°N, 0.0000°E)
Time: 03:37:04
(UTC+00:00)

Transit 4A - Pass Details

Date: 03 July 2019
Orbit: 862 x 982 km, 66.8° (Epoch: 19 July)

Event Time Altitude Azimuth Distance (km) Brightness Sun altitude
Rises 08:59:31 0° 280° (W) 3,679 10.6 44.9°
Reaches altitude 10° 09:02:46 10° 295° (WNW) 2,740 10.0 45.4°
Maximum altitude 09:07:35 22° 344° (NNW) 2,029 9.6 46.1°
Drops below altitude 10° 09:12:25 10° 33° (NNE) 2,740 10.6 46.8°
Sets 09:15:40 0° 49° (NE) 3,679 11.2 47.2°
